Location: Unspecified
(0.0000°N, 0.0000°E)
Time: 16:37:52
(UTC+00:00)

Envisat - Pass Details

Date: 30 September 2022
Orbit: 764 x 765 km, 98.2° (Epoch: 26 September)

Event Time Altitude Azimuth Distance (km) Brightness Sun altitude
Rises 02:44:57 0° 52° (NE) 3,217 6.7 -46.2°
Enters shadow 02:48:58 10° 84° (E) 2,316 6.0 -45.2°
Exits shadow 02:55:22 - 149° (SSE) 2,996 6.4 -43.6°
Sets 02:56:10 0° 153° (SSE) 3,229 6.5 -43.4°
